Location: Unspecified
(0.0000°N, 0.0000°E)
Time: 06:23:37
(UTC+00:00)

N. Korean satellite - Pass Details

Date: 27 November 2022
Orbit: 421 x 454 km, 97.3° (Epoch: 29 November)

Event Time Altitude Azimuth Distance (km) Brightness Sun altitude
Rises 05:05:58 0° 3° (N) 2,437 9.9 -9.7°
Reaches altitude 10° 05:08:02 10° 357° (N) 1,565 8.9 -9.2°
Maximum altitude 05:11:17 50° 281° (WNW) 576 6.5 -8.4°
Drops below altitude 10° 05:14:32 10° 205° (SSW) 1,557 9.1 -7.7°
Sets 05:16:35 0° 199° (SSW) 2,423 10.1 -7.2°
